Location: ?????????
(38.5999°N, 22.7695°E)
Time: 04:42:38
(UTC+00:00)

PAYLOAD A - Pass Details

Date: 13 August 2024
Orbit: 690 x 831 km, 98.5° (Epoch: 09 September)

Event Time Altitude Azimuth Distance (km) Brightness Sun altitude
Rises 03:03:23 0° 1° (N) 3,194 7.6 -7.7°
Reaches altitude 10° 03:05:56 10° 351° (N) 2,243 6.6 -7.3°
Maximum altitude 03:10:08 29° 292° (WNW) 1,298 4.9 -6.5°
Drops below altitude 10° 03:14:12 10° 233° (SW) 2,169 5.7 -5.8°
Enters shadow 03:15:24 - 227° (SW) 2,596 6.1 -5.6°
